Home > Weather > Sochi > Past weeks

Flag for Russia Past Weather in Sochi, Russia — Yesterday and Last 2 Weeks

Now
79 °F

Passing clouds.


Feels Like: 81 °F
Forecast: 67 / 84 °F
Wind: 6 mph from Northwest

Location: Adler

Current Time: Jul 26, 2016 at 7:19:46 PM

Latest Report: Jul 26, 2016 at 6:30 PM


Visibility: N/A

Pressure: 29.86 "Hg

Humidity: 65%

Dew Point: 66 °F

Location of SochiLocation

Past Weather in Sochi — Graph

°F

Sochi Temperature Yesterday

Maximum temperature yesterday: 79 °F (at 12:30 PM)
Minimum temperature yesterday: 64 °F (at 5:00 AM)
Average temperature yesterday: 72 °F

High & Low Weather Summary for the Past Weeks

 TemperatureHumidityPressure
High90 °F (Jul 18, 10:30 AM)94% (Jul 19, 6:00 AM)30.04 "Hg (Jul 19, 6:00 AM)
Low64 °F (Jul 12, 1:30 AM)43% (Jul 13, 4:00 PM)29.65 "Hg (Jul 17, 7:30 PM)
Average76 °F71%29.85 "Hg
* Reported Jul 11 6:00 PM — Jul 26 6:00 PM, Sochi, Weather by CustomWeather, © 2016

Note: Actual official high and low records may vary slightly from our data, if they occured in-between our weather recording intervals... More about our weather records

Advertising

Sochi Weather History for the Previous 24 Hours

Scroll right to see more
 ConditionsComfort  
Time TempWeatherWind HumidityBarometerVisibility
6:00 PM
Tue, Jul 26
79 °FPassing clouds.6 mph61%29.86 "HgN/A
5:30 PM79 °FPassing clouds.8 mph61%29.86 "HgN/A
5:00 PM79 °FPassing clouds.8 mph65%29.86 "HgN/A
4:30 PM79 °FPassing clouds.8 mph65%29.86 "HgN/A
4:00 PM79 °FPassing clouds.8 mph61%29.86 "HgN/A
3:30 PM81 °FPassing clouds.8 mph58%29.86 "HgN/A
3:00 PM81 °FPassing clouds.6 mph54%29.86 "HgN/A
2:30 PM81 °FPassing clouds.8 mph54%29.89 "HgN/A
2:00 PM81 °FPassing clouds.3 mph51%29.89 "HgN/A
1:30 PM81 °FPassing clouds.6 mph54%29.89 "HgN/A
1:00 PM81 °FPassing clouds.8 mph54%29.89 "HgN/A
12:30 PM81 °FPassing clouds.8 mph54%29.89 "HgN/A
12:00 PM79 °FPassing clouds.10 mph61%29.89 "HgN/A
11:30 AM81 °FPassing clouds.8 mph54%29.89 "HgN/A
11:00 AM79 °FPassing clouds.6 mph58%29.89 "HgN/A
10:30 AM79 °FScattered clouds.8 mph58%29.89 "HgN/A
10:00 AM79 °FScattered clouds.6 mph58%29.89 "HgN/A
9:30 AM79 °FPassing clouds.6 mph58%29.89 "HgN/A
9:00 AM79 °FPassing clouds.No wind54%29.89 "HgN/A
8:30 AM75 °FPassing clouds.6 mph65%29.89 "HgN/A
8:00 AM73 °FPassing clouds.8 mph65%29.92 "HgN/A
7:30 AM72 °FScattered clouds.8 mph69%29.92 "HgN/A
7:00 AM70 °FScattered clouds.8 mph73%29.92 "HgN/A
6:30 AM68 °FPassing clouds.10 mph78%29.92 "HgN/A
6:00 AM68 °FPassing clouds.8 mph78%29.89 "HgN/A
5:30 AM66 °FPassing clouds.8 mph83%29.89 "HgN/A
5:00 AM66 °FPassing clouds.6 mph83%29.89 "HgN/A
4:30 AM66 °FClear.10 mph83%29.89 "HgN/A
4:00 AM66 °FClear.10 mph83%29.89 "HgN/A
3:30 AM66 °FClear.10 mph88%29.89 "HgN/A
3:00 AM68 °FClear.13 mph83%29.89 "HgN/A
2:30 AM68 °FClear.10 mph83%29.89 "HgN/A
2:00 AM68 °FClear.8 mph83%29.89 "HgN/A
1:30 AM68 °FClear.8 mph83%29.89 "HgN/A
1:00 AM68 °FClear.10 mph83%29.89 "HgN/A
12:30 AM68 °FClear.8 mph83%29.89 "HgN/A
12:00 AM68 °FClear.6 mph83%29.89 "HgN/A
11:30 PM
Mon, Jul 25
70 °FPassing clouds.8 mph78%29.92 "HgN/A
11:00 PM72 °FPassing clouds.6 mph78%29.92 "HgN/A
10:30 PM72 °FPassing clouds.6 mph73%29.92 "HgN/A
10:00 PM70 °FPassing clouds.6 mph83%29.92 "HgN/A
9:30 PM72 °FPassing clouds.3 mph78%29.92 "HgN/A
9:00 PM72 °FPassing clouds.3 mph78%29.92 "HgN/A
8:30 PM72 °FPassing clouds.3 mph78%29.92 "HgN/A
8:00 PM75 °FPassing clouds.3 mph65%29.89 "HgN/A
7:30 PM75 °FScattered clouds.No wind65%29.89 "HgN/A
7:00 PM77 °FScattered clouds.1 mph61%29.89 "HgN/A
Weather by CustomWeather, © 2016

See weather overviewHow to use our weather pages